Voltar ao catálogo

YAOGAN-33

AtivoMilitarSSO
NORAD 47302·PAYLOAD·🇨🇳 China

Lançado Dec 27, 2020 de Jiuquan Satellite Launch Center

Loading…

Próximas Passagens (próximas 24 horas)

TLE

AtualizadoSource: Space-Track

Época: Sep 14, 2026, 14:31 UTC

1 47302U 20103A   26257.60554225  .00000264  00000-0  66168-4 0  9996
2 47302  98.0264 136.2641 0002721 184.9077 175.2097 14.58621360304349

Acompanhe YAOGAN-33 em tempo real com AllMySat

Download on the App Store